Location: Misciano
(43.5000°N, 11.9500°E)
Time: 05:28:01
(UTC+00:00)

Cosmos 1869 Rocket - Visible Passes

Search period start: 26 November 2020 00:00
Search period end: 06 December 2020 00:00
Orbit: 605 x 632 km, 82.5° (Epoch: 25 November)

Date Brightness Start Highest point End Pass type
(mag) Time Alt. Az. Time Alt. Az. Time Alt. Az.
30 Nov 5.6 17:57:00 10° N 17:58:06 17° N 17:58:06 17° N visible
01 Dec 5.1 16:37:52 10° NNE 16:45:57 - SE 16:40:23 16° ENE visible
01 Dec 4.6 18:14:27 10° NNW 18:22:42 12° SSW 18:23:06 10° S visible
02 Dec 4.5 16:54:22 10° NNE 16:58:12 27° ENE 17:01:59 10° SE visible
02 Dec 5.5 18:32:11 10° NNW 18:36:00 28° W 18:39:48 10° SSW visible
03 Dec 6.5 05:28:07 10° ESE 05:30:51 16° E 05:33:36 10° NE visible
03 Dec 3.7 17:11:21 10° N 17:15:41 48° ENE 17:20:00 10° SSE visible
03 Dec 6.4 18:50:24 10° NW 18:53:07 16° W 18:55:48 10° WSW visible
04 Dec 5.8 05:44:10 10° SSE 05:47:58 29° E 05:51:48 10° NNE visible
04 Dec 3.5 17:28:34 10° N 17:33:05 89° ENE 17:37:32 10° S visible
05 Dec 5.1 16:09:20 10° NNE 16:12:12 16° ENE 16:15:02 10° ESE visible
05 Dec 4.5 17:46:03 10° NNW 17:50:22 49° W 17:54:38 10° SSW visible
